sat.trackr.live / text

‹ back to catalog

STARLINK-32046

NORAD 60198 · 2024-124R

PAYLOAD ACTIVE UNKNOWN

§ Identity

Operator
Country
US
Launch date
2024-07-03
Launch site
AFETR
Launch vehicle
Mass (kg)
RCS (m²)

Purposes: comms

External: N2YO · Heavens-Above · Gunter

§ Orbital elements

Epoch: 2026-09-21T21:18:12.128832Z

Period
94.01 min
Inclination
53.1591°
Eccentricity
0.0001468
Mean motion
15.31698252 rev/d
Perigee alt
469.7 km
Apogee alt
471.8 km
Semi-major
6,848.9 km
B*
-1.1493e-5
RAAN
129.8157°
Arg perigee
102.1512°
Mean anomaly
257.9654°
Rev number
12,558

§ Raw data

STARLINK-320461 60198U 24124R   26264.88764038 -.00000722  00000+0 -11493-4 0  99952 60198  53.1591 129.8157 0001468 102.1512 257.9654 15.31698252125585

JSON: /api/v1/satellites/60198 · /tle

For live sub-satellite position, see the globe view (requires WebGL).

§ Visibility from observer

Set your observer location to see the next 7 days of passes ≥ 10°. The values pass through the URL so the page stays shareable.

No JS? Fill the form by hand. The geolocation button needs JavaScript.